Regional Weather Roundup
Issued by NWS

Home | Current Version | Previous Version | Graphics & Text | Print | Product List | Glossary On
Versions: 1 2 3 4 5 6 7 8 9 10 11 12 13 14 15 16 17 18 19 20 21 22 23 24 25 26 27 28 29 30 31 32 33 34 35 36 37 38 39 40 41 42 43 44 45 46 47 48 49 50
795
ASUS43 KFSD 301602
RWRSD

WEATHER ROUNDUP FOR SOUTH DAKOTA
NATIONAL WEATHER SERVICE SIOUX FALLS SD
1100 AM CDT SUN APR 30 2017

NOTE: "FAIR" INDICATES FEW OR NO CLOUDS BELOW 12,000 FEET WITH NO
SIGNIFICANT WEATHER AND/OR OBSTRUCTIONS TO VISIBILITY.


SDZ001>005-009-010-012>017-301700-
NORTHWEST AND NORTH CENTRAL SOUTH DAKOTA

CITY           SKY/WX    TMP DP  RH WIND       PRES   REMARKS
BUFFALO          N/A     53  21  28 VRB3      29.92F
FAITH            N/A     53  22  29 NE10      29.99F
MOBRIDGE       SUNNY     57  23  26 VRB7      29.98F
$$

SDZ012>016-024>037-041>051-057-063-072>074-301700-
SOUTHWEST AND SOUTH CENTRAL SOUTH DAKOTA

CITY           SKY/WX    TMP DP  RH WIND       PRES   REMARKS
RAPID CTY ARPT SUNNY     52  23  32 N8        30.00F
PIERRE         MOSUNNY   53  24  32 N17       29.99F
CUSTER         SUNNY     42  15  33 NE10      29.99S
ELLSWORTH AFB  SUNNY     52  22  31 N12       30.00S
PHILIP         CLOUDY    53  22  29 NE10      30.00S
PINE RIDGE     MOSUNNY   47  20  34 N9        30.01R
SPEARFISH      FAIR      50  19  29 N6        30.00F
WINNER         FAIR      49  24  37 NE22      29.96R
$$

SDZ004>011-016>023-039-040-301700-
NORTHEAST SOUTH DAKOTA

CITY           SKY/WX    TMP DP  RH WIND       PRES   REMARKS
ABERDEEN       MOSUNNY   51  22  31 NE17      30.02F
WATERTOWN      CLOUDY    45  26  47 NE18      29.99F
BROOKINGS      CLOUDY    42  28  57 NE17      29.96F
SISSETON         N/A     52  24  33 NE12      30.03F
$$

SDZ017-020-022-023-036>040-048>070-301700-
SOUTHEAST SOUTH DAKOTA

CITY           SKY/WX    TMP DP  RH WIND       PRES   REMARKS
SIOUX FALLS    LGT RAIN  40  39  97 NE22G28   29.92F
HURON          PTSUNNY   47  29  49 N14       29.98S
CHAMBERLAIN    CLOUDY    48  24  38 N14G20    29.97R
MITCHELL       CLOUDY    47  29  49 NE16      29.96S
YANKTON        CLOUDY    39  34  81 N18G25    29.89F
$$

ABBREVIATIONS USED IN REMARKS
   TC - TEMPERATURE IN CELSIUS
  WCI - WIND CHILL INDEX
   HX - HEAT INDEX
  VSB - VISIBILITY





USA.gov is the U.S. government's official web portal to all federal, state and local government web resources and services.